Regional Weather Roundup
Issued by NWS

Home | Current Version | Previous Version | Text Only | Print | Product List | Glossary On
Versions: 1 2 3 4 5 6 7 8 9 10 11 12 13 14 15 16 17 18 19 20 21 22 23 24 25 26 27 28 29 30 31 32 33 34 35 36 37 38 39 40 41 42 43 44 45 46 47 48 49 50
174
ASUS44 KFWD 211115
RWRTX
NORTH TEXAS HOURLY WEATHER ROUNDUP
NATIONAL WEATHER SERVICE FORT WORTH TX
600 AM CDT MON AUG 21 2017

NOTE: "FAIR" INDICATES FEW OR NO CLOUDS BELOW 12,000 FEET WITH NO
SIGNIFICANT WEATHER AND/OR OBSTRUCTIONS TO VISIBILITY.

TXZ118-119-211200-
DALLAS/FORT WORTH METROPLEX

CITY           SKY/WX    TMP DP  RH WIND       PRES   REMARKS
DFW AIRPORT    CLEAR     80  72  76 S8        30.04S
DALLAS LOVE    CLEAR     80  72  76 S10       30.05R
FTW MEACHAM    CLEAR     80  72  76 S9        30.04S
DAL-EXECUTIVE  CLEAR     78  73  84 S6        30.05S
FTW-ALLIANCE   CLEAR     77  71  82 S6        30.04S
FTW-NAS-JRB    CLEAR     80  70  71 S9        30.04S
FTW-SPINKS     CLEAR     77  70  78 S5        30.07S
ARLINGTON      CLEAR     79  73  82 SE9       30.05S
GRAND PRAIRIE  CLEAR     79  70  73 SE6       30.07R
MESQUITE         N/A     74  73  95 SW5       30.06S
LANCASTER      CLEAR     75  72  89 CALM      30.07R
$$

TXZ091>094-102>105-117-120-121-131>134-211200-
NORTH CENTRAL TEXAS

CITY           SKY/WX    TMP DP  RH WIND       PRES   REMARKS
SHRMAN/DENISON CLEAR     77  73  86 S10       30.06S
GAINESVILLE    CLEAR     75  71  86 SE5       30.06S
BOWIE          CLEAR     75  69  81 SE7       30.05S
BRIDGEPORT       N/A     73  70  88 CALM      30.06S
DECATUR        CLEAR     78  69  74 S10         N/A
DENTON         CLEAR     77  72  84 SE8       30.04S
MCKINNEY       CLEAR     76  75  97 S6        30.06R
BONHAM         CLEAR     75  72  88 S5        30.07R
GREENVILLE     CLEAR     79  73  83 S3        30.07S
ROCKWALL       CLEAR     77  74  92 S7        30.07R
TERRELL        CLEAR     76  73  91 S5        30.06S
WAXAHACHIE     CLEAR     74  72  91 SE5       30.08S
CLEBURNE       CLEAR     77  73  88 S9        30.07F
GRANBURY       CLEAR     78  69  75 SE7       30.06S
$$

TXZ083>090-098>101-113>116-127>130-139>142-154-155-211200-
WESTERN NORTH TEXAS

CITY           SKY/WX    TMP DP  RH WIND       PRES   REMARKS
WICHITA FALLS  CLEAR     75  69  81 S12       30.02R
WF-KICKAPOO    CLEAR     75  70  85 S7        30.05S
VERNON         PTCLDY    73  65  75 W5        30.04S
ABILENE        CLEAR     74  65  73 S8        30.08R
ABILENE-DYESS  CLEAR     75  65  71 S8        30.06R
GRAHAM         CLEAR     77  68  72 S5        30.03S
BRECKENRIDGE   CLEAR     77  66  68 S7        30.05S
CISCO          CLEAR     75  68  78 S12       30.08S
EASTLAND       CLEAR     71  67  85 S5        30.07S
RANGER         CLEAR     75  68  78 S6        30.07S
MINERAL WELLS  CLEAR     74  68  81 CALM      30.04S
STEPHENVILLE   CLEAR     74  67  80 CALM      30.10R
COMANCHE       CLEAR     76  67  74 S9        30.07S
BROWNWOOD      PTCLDY    73  68  83 SE6       30.08S
COLEMAN        CLEAR     73  63  71 S6        30.09R
$$

TXZ143>147-156>162-174-175-211200-
CENTRAL TEXAS

CITY           SKY/WX    TMP DP  RH WIND       PRES   REMARKS
WACO           CLEAR     79  73  82 S9        30.06S
WACO-MCGREGOR  CLEAR     76  71  85 S6        30.06F
HILLSBORO      CLEAR     78  72  82 SE7       30.06S
CORSICANA      CLEAR     78  74  87 S6        30.07S
MEXIA          CLEAR     74  71  91 S5        30.07S
HEARNE         CLEAR     74  74  99 CALM      30.08R
CAMERON        CLEAR     75  73  93 CALM      30.07R
TEMPLE         CLEAR     76  71  85 S6        30.07S
KILLEEN        CLEAR     75  71  87 SE6       30.07R
KILLEEN-SKYLRK CLEAR     76  71  85 SW3       30.08R
FORT HOOD      CLEAR     75  71  87 S7        30.04S
HAMILTON       CLEAR     74  66  76 S8        30.09S
LAMPASAS       CLEAR     76  71  84 S3        30.07S
$$

TXZ095>097-106>112-122>126-135>138-148>153-164>167-211200-
EAST TEXAS

CITY           SKY/WX    TMP DP  RH WIND       PRES   REMARKS
PARIS          CLEAR     74  73  97 SE6       30.08R
SULPHUR SPRNGS CLEAR     77  74  90 S5        30.09R
MOUNT PLEASANT CLEAR    N/A N/A N/A CALM      30.09R
GILMER         CLEAR     74  73  96 CALM      30.08R
MINEOLA        CLEAR     75  73  94 CALM      30.07R
TYLER          CLEAR     75  75 100 S7        30.07S
LONGVIEW       CLEAR     76  75  97 SE5       30.07S
MARSHALL         N/A     73  70  93 CALM      30.11R
ATHENS         CLEAR     72  72 100 CALM      30.07R
PALESTINE      CLEAR     76  75  95 SE5       30.09R
JACKSONVILLE   CLEAR     74  74  98 S5        30.11R
HENDERSON      CLEAR     73  72  96 CALM      30.09S
CENTER         SUNNY     77  76  96 CALM      30.10S
NACOGDOCHES    CLEAR     73  72  94 CALM      30.09S
LUFKIN         CLEAR     73  72  96 CALM      30.08R
$$

SUPPLEMENTAL OBSERVATIONS (NWS FORT WORTH AREA)

CITY           SKY/WX    TMP DP  RH WIND       PRES   REMARKS
DENISON DAM      N/A     77  72  83 SE2         N/A
CADDO GRASSLND   N/A     77  73  88 S7          N/A
PAT MAYSE LAKE   N/A     75  73  94 E5          N/A
GREENVILLE       N/A     75  72  88 S5          N/A
CEDAR HILL       N/A     79  70  73 S8          N/A
LBJ GRASSLAND    N/A     77  68  73 SE6         N/A
POSSUM KINGDOM   N/A     77  68  73 S6          N/A
GRANBURY         N/A     77  68  73 SE9         N/A
COMANCHE         N/A     75  64  69 S9          N/A
MCGREGOR         N/A     75  70  83 S5          N/A
TEMPLE           N/A     75  70  83 S3          N/A
LAKE LIMESTONE   N/A     73  70  88 CALM        N/A
ATHENS           N/A     75  72  88 S3          N/A
$$

SUPPLEMENTAL OBSERVATIONS (NWS NORMAN AREA)

CITY           SKY/WX    TMP DP  RH WIND       PRES   REMARKS
GOODLETT         N/A     72  65  79 S7        30.03S
ODELL            N/A     74  67  80 S8        30.05S
CROWELL          N/A     74  67  80 S7        30.05R
KNOX CITY        N/A     74  64  71 S2        30.06S
SEYMOUR          N/A     75  64  68 S8        30.04R
MILLERS CREEK    N/A     75  64  69 S8          N/A
$$

SUPPLEMENTAL OBSERVATIONS (NWS SAN ANGELO AREA)

CITY           SKY/WX    TMP DP  RH WIND       PRES   REMARKS
WEINERT          N/A     72  65  77 S2        30.06R
HASKELL          N/A     76  62  61 S6        30.05S
THROCKMORTON     N/A     75  66  74 S7        30.06R
STAMFORD         N/A     77  65  66 S10       30.06S
CLYDE            N/A     72  65  79 S9        30.10S
HAMBY            N/A     75  63  64 S10         N/A
IVIE RESERVOIR   N/A     73  64  73 E6          N/A
COLORADO BEND    N/A     73  64  73 S6          N/A
$$

SUPPLEMENTAL OBSERVATIONS (NWS SHREVEPORT AREA)

CITY           SKY/WX    TMP DP  RH WIND       PRES   REMARKS
CLARKSVILLE      N/A     73  70  88 SE3         N/A
TEXARKANA        N/A     72  70  94 CALM        N/A
LINDEN           N/A     75  72  88 CALM        N/A
CADDO LAKE       N/A     72  70  94 CALM        N/A
GILMER           N/A     73  72  94 S3          N/A
HENDERSON        N/A     73  72  94 SE1         N/A
LUFKIN           N/A     73  72  94 MISG        N/A
N SABINE NF      N/A     73  72  94 MISG        N/A
S SABINE NF      N/A     73  72  94 CALM        N/A
$$

SUPPLEMENTAL OBSERVATIONS ARE A COLLECTION OF AUTOMATED INSTRUMENTS
THAT ARE MAINTAINED BY A VARIETY OF FEDERAL AND STATE AGENCIES.
CERTAIN ELEMENTS...SUCH AS HUMIDITY VALUES AND SUSTAINED WIND
SPEEDS...MAY BE APPROXIMATED.





USA.gov is the U.S. government's official web portal to all federal, state and local government web resources and services.